Location: Unspecified
(51.0950°N, 12.9690°E)
Time: 22:10:59
(UTC+00:00)

deb Chang Zheng 4 - Pass Details

Date: 28 October 2021
Orbit: 595 x 616 km, 98.6° (Epoch: 01 December)

Event Time Altitude Azimuth Distance (km) Brightness Sun altitude
Rises 16:55:47 0° 164° (SSE) 2,832 6.9 -11.0°
Reaches altitude 10° 16:57:56 10° 165° (SSE) 1,937 6.0 -11.3°
Maximum altitude 17:02:09 86° 254° (WSW) 611 3.5 -12.0°
Drops below altitude 10° 17:06:25 10° 344° (NNW) 1,966 6.3 -12.6°
Sets 17:08:37 0° 345° (NNW) 2,879 7.1 -13.0°
